Location: Lachepaillet
(43.4918°N, 1.4874°W)
Time: 23:40:00
(UTC+00:00)

Cosmos 1072 Rocket - Pass Details

Date: 15 May 2026
Orbit: 949 x 1007 km, 82.9° (Epoch: 11 June)

Event Time Altitude Azimuth Distance (km) Brightness Sun altitude
Exits shadow 21:36:50 25° 180° (S) 1,878 5.5 -19.1°
Maximum altitude 21:40:45 81° 96° (E) 1,002 4.4 -19.5°
Drops below altitude 10° 21:47:07 10° 10° (N) 2,770 7.5 -20.2°
Sets 21:49:40 0° 9° (N) 3,730 8.3 -20.5°
